User: anonymous
Location: Unspecified
(0.0000°N, 0.0000°E)
Time: 11:49:05
(UTC+02:00)
Language:

Meteor 1-31 Rocket - Orbit

View from above orbital plane
View from above orbital plane
View from above satellite
View from above satellite

Ground track
Ground track

The orbit data is extracted from the following two-line orbital elements,

1 12586U 81065B   14261.46888447  .00003001  00000-0  20665-3 0  4693
2 12586 097.4095 256.7374 0021887 047.1823 313.1240 15.06415866805305
Epoch (UTC): 18 September 2014 11:15:11
Eccentricity: 0.0021887
inclination: 97.4095°
perigee height: 532 km
apogee height: 562 km
right ascension of ascending node: 256.7374°
argument of perigee: 47.1823°
revolutions per day: 15.06415866
mean anomaly at epoch: 313.1240°
orbit number at epoch: 80530

The dashed part of the orbit path shows where the satellite is in the earth's shadow,  

DLR